Orbital Elements at Epoch 2452600.5 (2002-Nov-22.0) TDB
Reference: JPL 5 (heliocentric ecliptic J2000)
Element | Value | Uncertainty (1-sigma) | Units |
e | .0002212433279597004 | 8.0406 | |
a | 46.84866086274271 | 437.62 | au |
q | 46.83829590910298 | 798.7 | au |
i | 2.460547759880785 | 3.7578 | deg |
node | 176.7606872928636 | 158.33 | deg |
peri | 41.85517944560135 | 3.3832e+06 | deg |
M | 199.5383830953414 | 3.3846e+06 | deg |
tp | 2504805.591618784470 (2145-Oct-28.09161878) | 1.1006e+09 | TDB |
period | 117123.5423480067 320.67 | 1.6411e+06 4493 | d yr |
n | .003073677527019628 | 0.043067 | deg/d |
Q | 46.85902581638245 | 437.72 | au |
|
| | Orbit Determination Parameters
Additional Information
|